Wetbulb
57.20 57.55 57.63 57.58 57.70 58.15 58.51 58.85 58.97 58.91 59.45 59.72 59.81 59.61 59.76 60.22 60.36 57.27 52.67 57.32 62.95 67.73 67.85 59.50 59.12 57.73 57.78 52.63 52.79 49.03 40.64 36.36 38.60 40.18 43.45 48.02 47.73 52.20 52.69 49.76 50.56 52.93 51.43 54.36 56.71
56.23 56.60 57.01 57.16 57.29 57.57 57.79 58.10 58.20 58.29 58.53 58.87 59.07 59.13 59.30 59.79 55.07 52.54 57.76 61.61 65.50 68.66 61.74 55.35 54.57 55.32 50.79 50.22 49.79 45.81 40.31 42.02 45.33 44.31 45.74 48.02 48.52 49.90 50.50 49.92 48.54 51.94 56.56 56.85 58.08
55.78 55.99 56.31 56.77 57.13 56.98 57.39 57.32 57.60 57.76 57.98 58.19 58.39 58.56 59.16 57.95 49.89 48.47 60.91 62.28 64.12 67.63 64.47 59.46 55.87 53.66 49.24 49.55 48.47 46.52 42.69 46.86 48.85 49.98 49.87 48.45 48.49 49.85 47.94 48.10 50.00 50.04 54.53 56.59 56.10
55.77 55.76 55.83 55.97 56.25 56.42 56.80 56.75 57.12 57.17 57.50 57.73 57.82 57.89 58.78 54.78 37.43 50.18 60.95 62.73 64.64 64.98 63.22 58.90 54.49 49.66 48.02 47.41 50.44 45.06 48.65 48.60 50.34 51.61 49.26 47.59 50.02 48.59 47.99 49.73 52.10 52.51 53.90 56.77 56.20
55.85 55.68 55.22 55.10 55.18 55.45 56.09 56.40 56.79 57.22 57.03 57.04 57.17 57.77 54.35 47.13 46.01 54.80 60.60 61.84 60.54 63.19 60.84 56.62 52.59 50.40 46.91 47.91 48.77 46.40 48.67 50.34 51.14 50.33 48.12 48.98 47.58 48.23 47.92 51.06 50.95 52.60 55.68 56.85 56.61
55.92 56.07 55.60 55.44 55.44 54.97 55.08 55.42 56.30 56.79 56.68 56.83 57.01 57.56 50.87 41.63 53.02 55.15 55.24 56.98 59.59 61.70 60.94 57.13 53.05 53.94 49.60 49.12 47.90 49.01 48.53 47.88 48.35 48.57 48.14 47.21 47.63 46.80 49.26 50.55 49.82 51.20 53.08 55.18 56.50
55.61 55.43 55.45 55.47 55.33 55.26 55.24 55.02 55.44 55.97 56.25 56.40 57.04 54.28 48.81 45.19 52.65 55.26 55.01 56.02 60.54 61.09 58.65 58.46 56.73 54.21 51.17 48.85 51.32 48.78 44.65 46.10 46.82 47.49 47.27 46.94 44.63 45.42 49.15 47.89 48.51 49.56 49.60 51.69 54.17
55.36 54.92 55.19 54.94 54.98 55.50 55.46 55.62 55.28 55.65 55.76 56.63 57.47 52.64 43.80 53.01 53.71 53.32 55.52 54.67 58.89 61.64 61.14 60.71 58.70 54.41 52.95 50.65 46.47 42.56 41.47 38.16 44.01 45.96 47.35 46.72 39.64 47.02 48.89 45.06 46.78 48.45 46.16 47.44 48.14
55.62 55.28 55.04 53.63 53.61 54.46 55.04 55.21 55.45 55.79 56.37 56.70 52.26 48.15 41.11 57.29 51.61 53.17 54.05 52.79 56.12 59.32 61.16 61.33 57.89 51.77 51.53 44.93 41.09 39.44 35.42 36.32 40.47 45.91 45.25 44.17 41.19 46.87 46.90 46.56 46.61 44.26 43.39 45.70 47.30
55.69 55.88 56.22 55.05 54.60 54.96 55.48 55.48 54.86 55.13 54.29 53.98 51.88 44.87 47.55 47.08 52.79 54.77 55.41 54.94 55.43 56.18 56.96 56.15 53.69 47.52 44.62 41.85 36.00 35.89 35.39 37.10 36.81 41.87 43.06 41.19 42.37 45.26 45.51 43.96 42.52 42.01 42.75 45.26 47.33
55.49 55.54 55.57 55.90 55.89 55.86 54.41 52.30 45.55 44.12 48.85 44.15 44.00 44.72 47.38 51.81 55.45 54.45 57.54 54.35 55.74 54.00 49.12 53.03 47.61 43.71 44.79 44.61 42.09 40.30 37.17 36.26 39.52 43.85 42.85 41.70 41.28 44.50 44.00 42.72 42.03 42.59 43.70 45.10 46.83
55.22 55.12 55.22 55.72 55.58 56.07 53.67 48.87 47.71 47.60 41.15 46.38 46.75 47.12 52.35 52.49 47.21 52.42 58.23 51.43 50.39 46.52 50.25 48.26 45.09 47.79 47.99 45.07 42.12 40.01 37.38 36.30 40.90 44.25 42.34 40.13 40.99 43.45 41.47 42.10 43.16 44.64 44.32 45.75 46.30
55.07 55.15 55.67 55.61 55.18 54.42 50.91 50.52 53.99 51.14 40.22 44.10 47.32 45.76 49.06 51.57 48.63 50.31 55.04 53.11 48.06 46.64 47.63 45.40 47.50 49.67 46.50 42.28 42.19 39.31 36.96 37.14 39.28 42.36 41.96 39.84 38.92 38.28 41.72 42.97 44.01 44.48 45.50 46.32 46.92
55.64 56.16 55.75 55.29 51.51 53.27 50.83 54.00 54.62 53.30 38.28 38.50 43.16 46.98 50.14 51.99 47.69 54.64 55.51 53.28 49.47 45.38 48.01 45.88 46.22 46.49 45.10 41.79 40.96 36.34 42.22 42.74 40.92 37.18 33.87 38.77 31.47 34.53 38.93 41.55 42.34 41.93 44.12 45.05 46.43
56.39 56.04 55.31 55.19 52.57 50.01 52.86 55.00 55.02 50.26 27.87 40.54 43.61 53.17 51.61 48.06 49.28 49.28 54.40 52.19 47.46 46.33 44.24 44.29 44.23 43.94 42.52 41.98 42.65 40.60 44.48 41.02 39.80 35.15 33.06 34.38 32.94 35.60 39.56 39.59 41.89 42.32 43.10 44.33 45.31
56.45 55.89 55.07 54.29 54.23 54.90 55.32 55.18 52.05 37.64 27.71 39.13 45.95 45.83 43.22 47.15 47.36 49.34 49.98 52.77 53.08 46.17 44.63 42.45 46.16 44.16 43.04 44.37 44.28 44.97 40.59 38.82 36.28 34.36 29.49 34.06 34.80 33.97 37.04 40.74 41.11 41.68 43.04 44.76 45.47
56.06 55.88 54.59 55.42 50.70 55.72 54.87 50.95 37.18 33.64 41.27 39.41 41.84 44.16 43.28 43.39 44.54 46.73 45.86 45.33 43.19 38.15 37.56 40.91 40.06 40.89 44.26 39.97 40.70 40.05 35.63 30.24 29.14 28.57 29.10 33.69 32.61 36.79 40.70 42.32 45.35 43.62 43.33 43.96 45.22
55.38 55.36 54.81 53.47 56.14 55.07 52.33 44.55 34.87 38.51 39.18 44.48 44.00 43.04 41.09 43.41 43.46 44.02 43.09 40.42 43.73 39.89 36.20 34.26 34.09 39.02 41.81 40.82 38.41 37.15 36.66 31.25 27.84 27.14 31.00 34.35 31.28 37.14 40.24 43.07 45.18 45.62 44.80 44.58 45.10
54.76 51.69 51.24 52.83 55.60 54.10 47.52 39.05 37.95 40.51 42.92 42.32 42.49 38.77 41.08 43.27 42.75 42.39 41.16 40.89 42.46 42.49 37.89 35.05 33.70 39.84 41.39 40.99 41.80 37.29 35.12 38.45 34.18 31.58 30.44 33.39 36.61 38.53 41.67 42.02 43.60 43.67 43.97 43.56 44.61
48.92 47.30 50.49 54.06 54.81 51.72 45.88 41.58 43.27 46.12 44.72 44.78 38.66 41.16 38.49 39.18 38.77 40.10 39.60 45.32 45.23 46.06 44.15 38.82 32.19 38.51 39.69 41.15 39.25 38.52 40.42 34.06 33.30 28.21 26.18 30.14 31.38 34.79 36.98 39.78 42.22 42.60 42.85 43.35 43.94
46.57 44.94 51.71 54.22 54.23 49.26 42.37 43.37 45.70 47.06 48.12 45.86 43.03 40.76 39.65 39.55 39.80 40.85 41.37 44.50 46.66 45.87 45.09 41.24 37.16 35.38 38.27 36.96 36.97 36.94 34.76 34.69 34.71 32.78 28.60 26.25 31.22 37.95 38.76 40.64 42.60 43.19 43.85 44.03 43.67
45.52 40.84 52.71 54.54 43.81 43.83 43.23 46.36 47.53 47.74 49.61 47.80 46.40 43.80 43.06 44.42 42.60 41.12 41.14 43.33 47.06 46.96 42.92 42.98 37.82 32.93 35.57 39.23 40.54 38.44 38.04 36.07 31.54 30.26 29.86 28.48 31.80 40.13 38.47 40.80 42.17 43.44 44.72 43.54 44.45
42.19 45.42 52.85 52.21 41.37 40.09 44.21 45.04 46.80 46.68 46.78 47.45 46.39 47.86 47.34 44.22 41.13 42.91 43.30 47.09 47.70 45.92 43.71 44.22 38.30 32.47 33.72 37.33 39.12 37.75 38.69 37.62 36.63 34.85 31.82 29.40 32.35 40.80 41.23 40.18 41.96 42.79 43.08 43.88 44.43
42.84 40.96 44.53 43.73 42.60 42.03 42.16 41.88 43.05 47.80 46.76 47.24 46.66 47.67 45.12 42.85 44.21 41.65 42.24 45.48 46.58 45.95 47.53 45.85 38.27 36.29 34.47 35.46 38.16 36.49 39.14 38.70 36.52 31.27 31.67 32.19 33.73 37.22 39.47 41.28 42.62 43.64 44.92 42.91 44.51
41.23 39.19 41.69 39.74 39.58 39.97 41.46 43.41 41.68 42.42 46.41 47.01 45.25 44.93 44.00 40.57 40.64 40.39 42.39 43.13 45.05 46.29 43.31 41.89 36.19 36.41 36.70 37.96 37.70 38.00 38.19 38.68 36.60 35.09 33.51 33.76 35.61 37.58 40.04 40.78 42.32 42.28 41.97 43.04 41.93
40.75 39.20 40.35 39.07 40.20 38.90 38.86 38.00 40.83 41.48 43.27 43.18 41.84 42.21 42.41 39.83 40.81 40.73 42.47 41.83 41.99 42.87 41.72 41.44 36.14 36.36 33.70 36.95 36.53 34.92 36.42 36.51 36.93 37.82 37.48 36.91 37.65 41.53 42.32 40.32 41.27 39.49 41.55 41.70 40.64
43.32 43.45 39.75 39.22 37.49 36.81 37.25 38.96 40.53 42.99 43.10 42.76 43.91 41.53 38.63 39.45 41.62 42.25 43.83 43.71 43.72 42.09 40.05 38.83 36.00 33.42 29.59 34.86 35.43 32.50 34.99 34.81 33.93 35.00 35.99 32.62 37.02 40.27 40.40 42.12 41.16 40.95 41.57 40.88 39.47
MSLP
1014.02 1013.97 1013.98 1014.02 1014.01 1014.05 1014.01 1013.93 1014.16 1014.45 1014.65 1014.75 1014.94 1015.15 1015.44 1015.65 1015.72 1015.96 1015.68 1014.76 1014.37 1013.70 1013.76 1013.99 1014.41 1014.43 1014.64 1014.79 1014.74 1015.20 1016.14 1016.28 1015.43 1014.40 1013.23 1012.12 1011.45 1010.19 1009.52 1009.45 1008.81 1008.77 1008.96 1009.15 1009.40
1013.89 1013.72 1013.70 1013.66 1013.60 1013.85 1013.95 1013.85 1013.88 1014.10 1014.42 1014.60 1014.75 1014.93 1015.28 1015.54 1015.68 1015.28 1014.77 1014.42 1013.98 1013.86 1014.02 1014.17 1014.38 1014.69 1014.94 1014.81 1014.92 1015.30 1015.88 1015.33 1014.34 1013.76 1013.20 1012.40 1011.66 1010.77 1010.00 1009.42 1009.18 1009.12 1009.33 1009.64 1009.75
1013.49 1013.30 1013.23 1013.31 1013.22 1013.40 1013.54 1013.63 1013.61 1013.72 1014.05 1014.45 1014.57 1014.81 1015.13 1015.49 1015.49 1013.47 1013.54 1013.77 1013.48 1013.54 1013.97 1014.23 1014.42 1014.70 1014.98 1014.77 1014.81 1014.95 1015.00 1014.27 1013.54 1013.22 1012.86 1012.30 1011.44 1010.83 1010.43 1009.82 1009.27 1009.36 1009.64 1010.23 1010.33
1013.22 1013.04 1012.92 1013.04 1013.10 1012.99 1013.10 1013.40 1013.38 1013.40 1013.65 1014.13 1014.43 1014.71 1015.06 1015.49 1014.57 1012.06 1011.96 1012.50 1012.99 1013.36 1013.86 1014.16 1014.47 1014.65 1014.72 1014.66 1014.39 1014.68 1014.12 1013.73 1012.95 1012.59 1012.55 1012.01 1011.20 1010.64 1010.14 1009.66 1009.19 1009.19 1009.18 1009.81 1010.34
1013.03 1012.90 1012.89 1012.97 1012.92 1012.60 1012.69 1012.89 1013.09 1013.11 1013.44 1013.86 1014.28 1014.50 1014.98 1014.77 1012.99 1011.67 1011.67 1012.00 1012.63 1013.26 1013.59 1013.80 1013.98 1014.15 1014.31 1014.25 1014.25 1014.27 1013.67 1013.28 1012.64 1012.37 1012.18 1011.62 1011.13 1010.75 1009.79 1009.27 1009.01 1008.87 1009.01 1009.33 1009.77
1012.87 1012.76 1012.62 1012.50 1012.46 1012.35 1012.32 1012.42 1012.69 1013.05 1013.12 1013.55 1013.98 1014.17 1014.53 1013.70 1012.10 1011.87 1012.08 1012.13 1012.47 1012.86 1013.20 1013.47 1013.43 1013.36 1013.82 1013.90 1013.95 1013.47 1013.33 1012.98 1012.57 1012.04 1011.73 1011.45 1010.75 1010.37 1009.29 1008.79 1008.91 1009.00 1009.21 1009.19 1009.46
1012.38 1012.30 1012.19 1012.05 1012.02 1012.09 1012.04 1012.22 1012.39 1012.79 1012.92 1013.33 1013.56 1014.05 1013.80 1012.50 1011.90 1011.63 1012.20 1012.36 1012.68 1012.45 1012.78 1012.95 1013.24 1013.21 1013.37 1013.54 1013.32 1013.17 1013.46 1012.92 1012.15 1011.49 1011.41 1011.03 1010.64 1009.81 1008.77 1008.97 1008.92 1009.05 1009.19 1009.11 1008.98
1012.02 1012.00 1011.89 1011.75 1011.62 1011.60 1011.72 1011.78 1012.00 1012.37 1012.66 1012.97 1013.12 1013.84 1012.85 1011.92 1012.04 1012.28 1012.22 1012.32 1012.68 1012.71 1012.34 1012.81 1013.32 1013.78 1013.24 1013.15 1013.22 1013.41 1013.61 1013.32 1011.74 1011.21 1010.73 1011.18 1010.48 1009.24 1008.93 1009.08 1008.93 1008.93 1009.53 1009.26 1009.33
1011.82 1011.78 1011.53 1011.48 1011.57 1011.56 1011.51 1011.59 1011.76 1012.01 1012.43 1012.49 1013.26 1013.22 1012.49 1011.23 1011.52 1011.42 1012.16 1012.35 1012.67 1013.09 1012.95 1013.36 1013.47 1013.48 1013.48 1013.49 1014.05 1014.15 1014.10 1013.61 1012.35 1010.91 1010.90 1010.98 1010.44 1009.07 1008.97 1009.06 1009.24 1009.55 1009.91 1010.00 1010.01
1011.48 1011.22 1010.84 1010.92 1010.84 1011.04 1011.18 1011.23 1011.65 1011.77 1012.20 1012.57 1012.70 1013.08 1011.24 1010.53 1010.28 1010.69 1011.28 1012.06 1012.59 1013.20 1013.35 1013.59 1014.07 1013.68 1013.69 1013.86 1014.12 1014.35 1014.37 1013.48 1012.77 1011.11 1010.95 1010.73 1010.27 1009.37 1009.18 1009.37 1009.66 1010.28 1010.48 1010.48 1010.52
1011.09 1010.81 1010.52 1010.28 1010.13 1010.02 1010.73 1011.46 1011.81 1011.83 1011.71 1011.29 1011.29 1010.59 1009.45 1009.77 1009.72 1009.99 1010.46 1011.57 1012.38 1012.93 1012.40 1013.14 1012.99 1012.94 1013.57 1013.47 1013.62 1013.85 1014.04 1013.50 1012.05 1010.77 1010.60 1010.33 1010.23 1009.74 1009.50 1009.81 1010.27 1010.78 1010.90 1010.97 1010.91
1010.79 1010.46 1010.18 1010.01 1009.86 1009.79 1010.22 1010.12 1009.80 1009.98 1010.84 1010.91 1010.83 1010.25 1009.58 1009.23 1009.62 1009.79 1010.09 1010.89 1011.56 1011.51 1012.57 1013.33 1012.74 1012.83 1013.18 1013.25 1013.66 1013.77 1013.86 1013.09 1011.70 1010.78 1010.46 1010.23 1010.23 1009.82 1009.82 1010.11 1010.34 1010.85 1011.14 1011.03 1011.08
1010.38 1009.94 1009.63 1009.59 1009.70 1009.85 1009.72 1009.62 1009.52 1009.77 1010.37 1010.64 1010.43 1009.84 1009.22 1009.21 1009.18 1009.22 1009.91 1010.26 1010.60 1011.38 1011.56 1011.43 1011.59 1012.41 1012.50 1013.06 1013.53 1013.53 1013.45 1012.88 1012.20 1011.34 1010.77 1010.70 1010.51 1010.10 1010.22 1010.36 1010.74 1010.92 1010.90 1011.19 1011.39
1009.85 1009.43 1008.90 1009.26 1009.86 1009.02 1009.10 1009.42 1009.66 1009.68 1009.91 1010.43 1009.81 1009.03 1009.08 1008.61 1009.37 1009.83 1009.97 1009.74 1010.14 1010.64 1011.37 1011.29 1011.20 1011.69 1012.25 1012.46 1012.77 1012.86 1012.28 1012.30 1012.06 1012.14 1011.95 1011.44 1011.41 1010.79 1010.68 1010.81 1011.11 1011.23 1011.25 1011.43 1011.78
1009.47 1009.20 1008.79 1008.99 1008.80 1008.82 1008.95 1009.07 1009.65 1009.92 1009.27 1009.79 1009.29 1008.74 1008.68 1008.96 1009.15 1009.70 1010.36 1009.45 1008.91 1009.75 1010.62 1010.54 1010.51 1011.18 1011.63 1011.44 1012.05 1012.02 1011.67 1011.96 1012.28 1012.63 1012.54 1012.20 1012.37 1010.67 1010.86 1011.19 1011.31 1011.42 1011.52 1011.77 1012.18
1009.10 1008.91 1008.69 1008.49 1008.25 1008.37 1008.65 1008.98 1009.21 1009.13 1008.64 1008.60 1008.13 1008.24 1009.46 1009.31 1009.32 1010.16 1009.49 1009.16 1008.99 1009.86 1010.43 1010.61 1010.34 1010.86 1010.60 1010.81 1011.14 1011.27 1011.87 1012.51 1013.15 1013.39 1013.16 1012.06 1012.07 1010.76 1010.63 1009.87 1010.88 1011.42 1011.67 1011.93 1012.47
1008.59 1008.41 1008.32 1007.97 1007.70 1008.06 1008.75 1008.92 1008.50 1007.42 1007.94 1007.79 1007.45 1007.56 1008.21 1008.22 1008.97 1009.30 1009.04 1008.79 1008.44 1009.48 1010.46 1010.93 1010.37 1010.04 1010.16 1010.78 1010.97 1011.40 1012.49 1013.53 1014.15 1014.04 1012.89 1011.92 1011.99 1009.69 1009.39 1009.10 1009.37 1010.81 1011.60 1012.02 1012.41
1007.71 1007.65 1007.30 1007.68 1007.14 1007.81 1008.70 1008.21 1007.14 1006.65 1006.34 1006.59 1006.98 1007.67 1007.51 1008.04 1008.90 1008.81 1008.92 1009.16 1008.94 1009.07 1010.42 1010.93 1010.99 1010.27 1009.69 1009.83 1010.52 1011.48 1012.06 1012.93 1013.25 1013.40 1012.50 1011.92 1011.13 1009.10 1008.60 1008.73 1009.50 1010.39 1011.15 1011.93 1012.39
1006.57 1006.33 1006.42 1006.09 1006.97 1007.62 1008.07 1006.85 1006.33 1006.01 1005.88 1005.92 1007.02 1007.30 1007.41 1007.85 1008.18 1008.46 1008.93 1008.79 1008.37 1008.60 1008.85 1010.30 1010.24 1009.82 1009.71 1009.53 1010.07 1011.13 1011.70 1011.87 1012.55 1012.79 1012.68 1011.46 1010.14 1008.86 1008.91 1009.25 1010.03 1010.82 1011.44 1012.03 1012.34
1006.44 1006.11 1005.27 1005.24 1006.52 1007.39 1007.16 1006.21 1005.82 1005.75 1005.79 1005.84 1006.07 1006.87 1006.89 1007.62 1008.01 1008.57 1009.16 1008.26 1008.42 1008.33 1008.02 1008.92 1010.28 1010.18 1010.02 1009.75 1010.16 1010.37 1011.03 1011.97 1012.56 1012.95 1012.84 1011.62 1010.62 1009.59 1009.98 1010.15 1010.51 1011.22 1011.57 1012.10 1012.43
1006.06 1005.97 1005.73 1005.58 1006.37 1006.92 1006.45 1006.19 1005.95 1005.95 1005.63 1005.56 1005.10 1005.66 1006.50 1006.96 1007.40 1007.79 1008.12 1008.23 1007.48 1007.77 1007.92 1008.51 1009.35 1010.65 1010.21 1010.08 1010.22 1010.84 1011.01 1011.53 1012.12 1012.47 1012.68 1012.27 1010.57 1009.20 1009.49 1009.79 1010.11 1010.89 1011.44 1011.78 1012.28
1006.17 1005.87 1005.91 1005.77 1006.22 1006.15 1006.13 1005.87 1006.14 1006.15 1005.80 1005.42 1005.04 1005.69 1006.14 1006.24 1006.67 1007.06 1007.56 1007.64 1007.48 1007.34 1007.73 1008.11 1009.24 1010.60 1010.50 1010.15 1010.18 1010.29 1010.54 1011.00 1011.96 1012.67 1012.90 1012.29 1010.29 1009.10 1009.23 1009.52 1010.02 1010.58 1010.96 1011.70 1012.38
1006.49 1005.80 1006.02 1005.52 1005.68 1005.97 1005.78 1005.81 1005.75 1005.70 1005.55 1005.37 1005.23 1005.41 1005.60 1006.22 1006.86 1007.09 1007.36 1007.50 1007.30 1007.48 1007.78 1008.01 1009.16 1010.53 1010.80 1010.79 1010.50 1010.38 1010.39 1010.79 1011.30 1012.07 1012.30 1012.05 1010.37 1009.32 1009.14 1009.68 1010.10 1010.68 1011.44 1011.92 1012.58
1006.54 1006.08 1005.67 1005.78 1005.33 1005.25 1005.58 1005.77 1005.73 1005.48 1005.09 1005.32 1005.49 1005.74 1006.09 1006.01 1006.08 1007.03 1007.47 1007.74 1007.66 1007.69 1007.75 1007.76 1008.83 1009.30 1009.59 1009.51 1009.57 1010.27 1010.27 1010.64 1011.06 1011.98 1011.53 1011.08 1010.30 1009.79 1009.74 1010.05 1010.35 1010.72 1011.02 1011.90 1012.87
1006.56 1006.38 1005.70 1005.97 1005.80 1005.43 1005.30 1005.47 1005.57 1005.62 1005.75 1005.52 1005.38 1005.62 1005.90 1006.93 1007.30 1007.65 1007.83 1007.89 1007.95 1007.94 1007.97 1008.14 1008.97 1009.36 1009.48 1009.45 1009.53 1009.78 1009.92 1010.27 1010.78 1010.84 1010.88 1010.51 1010.24 1009.93 1009.98 1010.14 1010.30 1010.53 1011.11 1012.23 1013.00
1006.55 1006.30 1005.93 1005.95 1005.67 1005.56 1005.65 1005.81 1005.68 1005.87 1005.75 1006.12 1006.22 1006.25 1006.36 1007.12 1007.30 1007.53 1007.59 1007.82 1007.94 1008.35 1008.61 1008.97 1009.89 1009.96 1010.27 1010.02 1009.90 1009.97 1009.94 1010.18 1010.47 1010.50 1010.42 1010.34 1009.83 1009.39 1009.60 1009.89 1010.29 1010.84 1011.70 1012.46 1013.20
1006.44 1006.09 1005.99 1006.30 1006.14 1005.89 1005.95 1005.94 1005.98 1006.00 1006.37 1006.34 1006.46 1006.36 1007.60 1007.85 1007.28 1007.55 1007.69 1007.91 1008.29 1008.79 1009.35 1009.74 1010.28 1010.86 1011.16 1010.79 1010.34 1010.05 1009.44 1009.56 1009.77 1009.91 1009.98 1010.06 1009.60 1009.63 1009.90 1010.52 1011.17 1011.57 1012.13 1012.83 1013.63
Wind_Speed
7 8 9 10 10 10 11 11 12 11 12 12 11 11 8 5 5 5 10 9 11 12 8 2 4 4 1 2 2 3 4 2 5 3 4 7 7 6 4 3 2 5 2 4 7
8 9 11 12 11 11 12 13 12 12 12 11 11 10 8 6 4 11 7 17 20 17 3 2 7 5 2 3 2 4 4 8 6 2 5 8 6 7 7 9 2 3 4 3 8
8 9 11 12 13 12 12 13 12 13 13 13 12 11 7 3 6 9 20 23 24 14 9 2 3 4 4 3 4 5 6 5 8 9 6 6 8 3 3 6 5 5 5 5 4
10 9 10 12 14 13 12 11 12 12 13 14 13 11 9 5 9 4 22 29 25 14 6 6 5 5 5 6 5 3 8 6 8 6 4 5 4 7 6 9 5 9 6 8 8
12 10 8 10 10 10 10 12 13 13 12 12 12 11 7 10 12 4 6 24 19 13 11 12 7 6 6 5 3 4 6 6 12 10 7 7 7 9 6 12 6 9 7 12 10
13 13 11 11 12 11 10 11 12 14 12 12 13 12 5 14 12 8 11 11 15 15 15 10 8 6 6 5 6 4 5 7 7 9 5 5 9 2 8 7 9 5 10 9 10
11 10 10 12 12 12 12 12 12 13 12 13 15 9 11 15 3 5 8 3 14 15 12 11 3 5 5 3 4 5 6 7 10 6 6 2 8 9 11 5 9 8 9 9 13
9 9 11 9 9 12 13 12 12 12 12 15 16 9 7 12 14 14 6 5 9 8 9 8 4 4 2 2 6 2 2 3 5 4 7 8 10 13 9 5 11 10 6 6 5
11 11 12 8 15 13 10 11 12 13 14 13 6 6 6 7 8 17 13 6 8 9 7 5 2 3 2 3 4 4 4 5 10 7 3 6 8 12 2 6 8 4 4 5 6
15 14 12 13 14 14 13 9 3 8 8 4 1 5 6 7 5 10 12 13 6 12 15 8 4 4 2 4 7 5 4 5 6 4 7 6 12 10 4 4 4 7 6 6 7
15 14 12 9 8 8 9 5 5 1 5 4 7 5 2 5 5 11 10 15 13 12 12 11 5 10 12 9 5 4 3 5 8 9 8 9 6 11 2 5 8 6 6 5 5
14 14 13 9 8 11 6 4 4 7 7 4 3 12 3 4 7 5 15 15 19 20 18 6 17 12 9 6 5 5 7 9 10 4 1 1 8 8 3 4 5 8 6 5 4
13 15 12 8 4 6 6 8 2 3 5 3 5 8 5 5 5 8 14 12 22 23 23 8 8 12 9 5 9 7 8 6 6 6 5 1 7 2 3 3 4 3 4 5 6
12 13 7 5 1 3 5 8 4 3 5 5 7 5 4 5 4 1 2 10 9 21 16 6 6 15 11 11 8 8 9 8 3 2 3 2 5 3 4 5 3 5 5 6 7
11 11 4 11 2 1 6 7 6 3 3 7 6 4 7 4 13 1 2 5 22 21 7 8 13 15 12 10 9 10 6 2 0 1 3 2 1 7 6 6 7 7 7 6 6
8 7 4 5 1 2 8 6 2 4 3 7 7 11 14 11 4 5 3 1 7 9 5 3 7 9 10 5 7 6 4 7 5 2 2 8 7 6 9 11 6 4 6 8 7
8 8 7 3 3 8 7 3 4 2 4 8 7 10 10 8 6 8 4 7 7 14 6 5 3 1 5 5 2 6 6 1 2 1 7 1 3 10 9 9 15 12 9 8 7
12 12 8 8 6 12 6 5 3 3 2 4 11 12 4 14 5 8 7 9 3 11 9 6 10 8 5 7 8 6 8 6 7 5 4 1 6 8 5 4 9 10 9 8 7
18 2 3 8 12 6 3 5 2 1 4 10 14 7 5 10 5 8 4 4 5 6 7 8 4 1 1 3 7 5 4 4 2 2 2 4 7 3 7 8 10 10 8 8 7
2 2 3 17 15 5 5 4 3 4 10 6 5 5 8 17 9 8 9 5 7 8 3 5 5 1 2 3 2 4 5 2 2 3 4 4 5 5 2 7 8 8 9 7 6
2 1 3 16 8 3 2 4 6 9 4 4 7 11 17 10 8 6 3 2 1 5 4 6 5 2 3 4 7 2 2 2 3 4 4 2 7 6 8 9 13 9 8 9 8
1 1 9 10 2 1 3 3 4 4 7 4 15 19 7 4 3 4 5 2 2 4 6 2 6 5 3 1 1 3 7 5 5 3 1 3 7 4 1 7 8 10 9 5 6
2 2 4 3 2 2 1 4 2 2 3 9 4 1 4 4 6 3 4 2 5 3 6 5 3 5 3 4 2 4 4 4 4 3 5 5 6 5 6 6 2 6 5 7 6
1 1 2 3 1 6 5 2 4 1 7 4 4 5 3 7 7 5 4 3 2 2 1 3 3 5 7 4 5 5 5 5 5 4 4 6 2 1 2 4 4 5 8 6 7
1 3 2 2 2 3 2 3 3 4 5 4 5 4 6 4 3 4 2 3 4 2 3 3 4 3 3 3 3 4 6 8 7 4 6 1 5 3 6 6 8 9 5 9 8
3 2 3 2 1 4 4 0 3 3 3 4 6 4 7 6 2 6 5 2 3 3 3 3 3 2 2 4 2 3 5 6 5 4 6 2 11 5 6 4 2 2 7 8 8
1 1 3 4 2 4 3 5 4 6 4 6 9 12 12 0 4 5 4 7 4 4 2 3 4 3 2 4 5 5 6 6 4 4 6 5 6 5 5 5 5 3 6 8 7
Wind_Direction
303 289 282 273 263 257 246 231 221 229 232 234 217 224 232 255 279 237 225 230 219 241 339 167 212 230 29 265 226 107 70 244 253 225 284 309 341 305 280 293 347 327 138 266 128
295 287 281 268 260 244 240 233 227 223 228 222 221 217 228 254 260 244 224 225 243 236 31 192 194 174 216 213 239 120 146 224 215 229 284 297 300 306 355 335 301 342 360 52 119
303 289 277 273 256 247 239 232 229 226 215 219 215 217 217 212 273 247 213 227 229 227 223 319 314 171 206 180 212 183 200 222 261 255 246 263 293 285 320 310 255 249 207 207 160
316 303 282 267 255 237 237 245 233 224 221 219 218 216 202 191 216 235 209 201 225 217 249 210 212 183 191 199 221 194 240 226 271 263 277 251 274 291 221 240 269 286 233 172 193
306 306 284 261 256 236 229 245 236 226 216 220 219 211 185 211 236 255 319 202 201 197 218 198 188 166 180 199 197 217 253 263 264 278 247 260 257 245 259 268 310 266 177 193 204
303 284 270 265 260 251 236 233 235 226 217 218 219 207 212 227 245 280 315 187 195 184 205 190 207 185 188 210 179 224 231 259 280 269 266 258 275 177 255 286 306 234 233 214 213
290 289 274 263 256 252 237 233 234 228 226 225 229 200 224 217 206 247 249 199 208 192 182 196 221 193 179 214 228 247 280 306 254 245 247 293 293 240 263 299 280 248 243 242 234
307 300 274 276 280 259 245 232 225 225 229 231 223 191 238 224 256 278 294 232 223 252 207 191 66 289 235 285 5 319 56 311 287 246 244 158 272 275 284 283 265 256 17 324 353
306 290 271 259 275 267 256 243 230 229 221 223 194 180 241 146 189 221 223 245 194 223 215 116 112 225 241 111 12 356 246 244 309 219 155 167 257 261 294 349 284 327 115 85 57
325 318 292 242 253 248 240 223 164 215 207 171 225 180 242 208 174 175 190 208 169 189 193 186 169 159 189 160 195 210 232 256 241 269 187 182 247 278 318 312 295 111 87 75 63
315 317 315 289 297 221 143 142 112 204 201 185 191 236 195 174 148 177 169 180 166 194 188 193 158 189 193 189 187 169 253 275 272 264 168 210 234 259 282 101 113 122 118 108 91
317 311 303 295 287 186 148 208 216 145 161 227 322 241 267 199 152 170 156 184 176 186 184 154 212 193 187 192 203 247 281 286 286 290 213 213 263 277 137 166 157 150 140 114 76
309 301 290 271 243 178 192 224 133 124 136 181 200 226 238 187 152 174 174 201 178 185 189 187 162 174 186 175 211 226 219 249 230 324 331 75 303 196 10 101 141 131 135 102 84
299 316 300 153 204 177 201 139 113 24 142 190 203 193 198 195 116 51 152 197 159 179 175 188 156 174 199 215 166 234 220 234 255 41 240 66 275 281 222 191 160 160 117 95 74
309 335 338 189 98 186 129 130 130 186 143 172 163 77 160 170 125 19 191 250 161 170 139 194 158 177 194 212 176 227 188 161 168 92 28 296 77 268 140 229 211 209 147 123 91
312 312 288 205 235 122 138 158 180 228 111 194 161 177 153 221 125 140 218 146 134 114 50 122 159 161 191 182 189 153 90 38 45 73 314 223 165 262 189 209 193 195 172 142 125
297 264 206 217 197 133 141 176 238 289 154 140 155 139 145 138 100 164 141 117 151 143 139 349 193 185 144 116 62 84 80 338 330 333 226 158 128 251 213 199 186 168 173 161 151
290 270 233 217 153 145 168 207 317 162 198 157 129 119 101 134 129 125 100 116 112 96 121 178 165 185 189 168 169 181 156 162 205 199 242 49 232 252 243 117 120 147 152 161 157
314 89 212 187 149 150 181 228 92 91 116 119 112 132 138 102 147 107 70 177 131 200 139 151 242 66 112 125 130 190 179 194 132 13 42 227 284 315 34 95 125 141 154 167 169
281 228 245 147 142 145 242 43 88 90 128 164 109 193 125 130 132 123 183 239 162 198 188 186 112 241 168 104 36 138 169 92 351 192 243 289 277 248 148 154 142 161 174 185 186
118 41 75 141 143 210 69 63 72 150 143 228 165 134 134 151 158 180 155 68 219 171 160 145 108 217 105 192 172 123 233 90 133 139 186 260 269 216 206 192 172 183 190 191 180
33 54 158 156 124 90 107 162 120 194 230 269 120 127 173 135 107 86 124 81 310 167 146 174 117 122 194 285 203 199 194 152 133 217 177 153 273 320 325 182 157 195 203 175 174
358 212 164 248 140 74 78 98 94 170 201 140 111 3 80 142 120 89 96 20 40 98 159 180 107 98 46 358 305 215 198 153 111 100 205 147 261 339 49 147 176 146 182 198 161
66 29 88 133 316 122 128 73 120 87 28 56 122 149 109 13 27 102 83 45 58 100 70 107 119 161 180 186 142 186 181 177 147 143 203 215 217 249 230 177 186 199 217 159 152
54 250 193 139 333 131 108 124 119 87 121 352 14 75 127 117 103 105 107 122 46 15 57 89 115 95 88 110 117 181 182 190 190 181 188 199 205 217 245 240 238 240 166 150 161
139 140 11 117 208 82 6 50 129 132 29 93 105 63 96 107 219 154 133 155 162 43 68 12 130 120 44 13 53 254 254 240 222 214 269 352 294 202 258 289 238 247 148 164 165
294 330 105 319 28 97 193 173 181 143 39 49 128 93 85 203 41 72 63 67 100 107 88 62 109 85 217 337 323 284 211 211 181 176 169 212 243 24 342 33 44 216 176 166 149